TimeCDT,TemperatureF,Dew PointF,Humidity,Sea Level PressureIn,VisibilityMPH,Wind Direction,Wind SpeedMPH,Gust SpeedMPH,PrecipitationIn,Events,Conditions,WindDirDegrees,DateUTC
12:15 AM,53.1,49.5,88,30.08,10.0,NW,3.5,-,N/A,,Clear,310,2012-11-01 05:15:00
12:35 AM,52.9,49.6,89,30.08,10.0,West,3.5,-,N/A,,Clear,280,2012-11-01 05:35:00
1:15 AM,52.7,50.2,91,30.08,10.0,Calm,Calm,-,N/A,,Clear,0,2012-11-01 06:15:00
1:35 AM,52.3,50.4,93,30.08,10.0,Calm,Calm,-,N/A,,Clear,0,2012-11-01 06:35:00
1:55 AM,51.8,49.8,93,30.08,10.0,Calm,Calm,-,N/A,,Clear,0,2012-11-01 06:55:00
2:15 AM,50.5,49.3,95,30.08,10.0,NW,4.6,-,N/A,,Clear,310,2012-11-01 07:15:00
2:35 AM,50.4,49.3,96,30.08,10.0,Calm,Calm,-,N/A,,Clear,0,2012-11-01 07:35:00
2:55 AM,49.6,49.1,98,30.07,10.0,West,3.5,-,N/A,,Clear,270,2012-11-01 07:55:00
3:15 AM,50.0,49.1,97,30.07,10.0,Calm,Calm,-,N/A,,Clear,0,2012-11-01 08:15:00
3:35 AM,48.4,47.8,98,30.06,10.0,NW,3.5,-,N/A,,Clear,310,2012-11-01 08:35:00
3:55 AM,48.9,48.7,99,30.06,10.0,Calm,Calm,-,N/A,,Clear,0,2012-11-01 08:55:00
4:15 AM,48.7,48.2,98,30.06,10.0,Calm,Calm,-,N/A,,Clear,0,2012-11-01 09:15:00
4:35 AM,48.2,48.2,100,30.07,10.0,Calm,Calm,-,N/A,,Clear,0,2012-11-01 09:35:00
5:15 AM,47.5,47.3,99,30.06,10.0,Calm,Calm,-,N/A,,Clear,0,2012-11-01 10:15:00
5:35 AM,47.5,47.5,100,30.06,10.0,Calm,Calm,-,N/A,,Clear,0,2012-11-01 10:35:00
5:55 AM,48.2,48.2,100,30.07,10.0,Calm,Calm,-,N/A,,Clear,0,2012-11-01 10:55:00
6:15 AM,48.4,48.4,100,30.07,10.0,Calm,Calm,-,N/A,,Clear,0,2012-11-01 11:15:00
6:35 AM,48.4,48.4,100,30.07,10.0,Calm,Calm,-,N/A,,Clear,0,2012-11-01 11:35:00
6:55 AM,46.9,46.9,100,30.07,10.0,Calm,Calm,-,N/A,,Scattered Clouds,0,2012-11-01 11:55:00
7:15 AM,47.7,47.7,100,30.08,0.2,Calm,Calm,-,N/A,Fog,Fog,0,2012-11-01 12:15:00
7:35 AM,47.1,47.1,100,30.08,7.0,Calm,Calm,-,N/A,,Mostly Cloudy,0,2012-11-01 12:35:00
7:55 AM,46.6,46.6,100,30.08,10.0,Calm,Calm,-,N/A,,Scattered Clouds,0,2012-11-01 12:55:00
8:35 AM,48.0,48.0,100,30.09,10.0,Calm,Calm,-,N/A,,Clear,0,2012-11-01 13:35:00
9:15 AM,52.5,52.0,98,30.10,10.0,Calm,Calm,-,N/A,,Clear,0,2012-11-01 14:15:00
9:35 AM,55.6,54.9,97,30.11,10.0,SW,5.8,-,N/A,,Clear,220,2012-11-01 14:35:00
9:55 AM,58.8,57.2,94,30.11,10.0,Calm,Calm,-,N/A,,Clear,0,2012-11-01 14:55:00
10:15 AM,61.3,58.8,91,30.11,10.0,Calm,Calm,-,N/A,,Clear,0,2012-11-01 15:15:00
10:35 AM,63.9,60.6,89,30.11,10.0,Calm,Calm,-,N/A,,Clear,0,2012-11-01 15:35:00
10:55 AM,66.9,62.2,85,30.11,10.0,WSW,3.5,-,N/A,,Clear,240,2012-11-01 15:55:00
11:15 AM,70.7,63.9,79,30.11,10.0,SW,5.8,-,N/A,,Clear,220,2012-11-01 16:15:00
11:35 AM,74.1,62.4,67,30.11,10.0,SW,10.4,-,N/A,,Clear,220,2012-11-01 16:35:00
11:55 AM,74.7,60.4,61,30.11,10.0,WSW,9.2,-,N/A,,Clear,240,2012-11-01 16:55:00
12:15 PM,75.6,61.2,61,30.10,10.0,SSW,6.9,-,N/A,,Clear,210,2012-11-01 17:15:00
12:35 PM,75.7,60.4,59,30.10,10.0,SSW,9.2,-,N/A,,Clear,200,2012-11-01 17:35:00
12:55 PM,77.0,57.6,51,30.09,10.0,South,6.9,-,N/A,,Clear,180,2012-11-01 17:55:00
1:15 PM,77.7,56.8,48,30.08,10.0,SSW,9.2,-,N/A,,Clear,210,2012-11-01 18:15:00
1:35 PM,78.1,55.9,46,30.07,10.0,SSW,11.5,-,N/A,,Clear,210,2012-11-01 18:35:00
1:55 PM,78.8,56.5,46,30.06,10.0,SSW,9.2,-,N/A,,Clear,210,2012-11-01 18:55:00
2:15 PM,79.3,53.2,40,30.05,10.0,South,10.4,-,N/A,,Clear,190,2012-11-01 19:15:00
2:35 PM,79.3,52.7,39,30.04,10.0,SW,10.4,-,N/A,,Clear,220,2012-11-01 19:35:00
2:55 PM,79.9,52.0,38,30.04,10.0,South,8.1,17.3,N/A,,Clear,180,2012-11-01 19:55:00
3:15 PM,79.7,52.2,38,30.02,10.0,South,8.1,-,N/A,,Clear,180,2012-11-01 20:15:00
3:35 PM,79.7,52.0,38,30.02,10.0,South,6.9,-,N/A,,Clear,180,2012-11-01 20:35:00
4:15 PM,79.7,51.6,38,30.02,10.0,South,4.6,-,N/A,,Clear,180,2012-11-01 21:15:00
4:35 PM,79.7,50.9,37,30.01,10.0,SSW,8.1,-,N/A,,Clear,200,2012-11-01 21:35:00
5:15 PM,79.0,51.4,38,30.01,10.0,SSW,8.1,-,N/A,,Clear,210,2012-11-01 22:15:00
5:35 PM,78.3,50.0,37,30.01,10.0,South,8.1,-,N/A,,Clear,190,2012-11-01 22:35:00
5:55 PM,77.7,51.1,39,30.01,10.0,SSW,8.1,-,N/A,,Clear,210,2012-11-01 22:55:00
6:15 PM,76.5,51.6,42,30.01,10.0,South,5.8,-,N/A,,Clear,180,2012-11-01 23:15:00
6:35 PM,74.3,53.1,47,30.01,10.0,South,4.6,-,N/A,,Clear,170,2012-11-01 23:35:00
6:55 PM,72.3,51.8,48,30.02,10.0,SSE,4.6,-,N/A,,Clear,160,2012-11-01 23:55:00
7:15 PM,71.6,51.8,50,30.02,10.0,SSE,4.6,-,N/A,,Clear,150,2012-11-02 00:15:00
7:35 PM,69.4,52.0,54,30.02,10.0,SSE,3.5,-,N/A,,Clear,150,2012-11-02 00:35:00
7:55 PM,68.4,52.2,56,30.03,10.0,Calm,Calm,-,N/A,,Clear,0,2012-11-02 00:55:00
8:15 PM,63.3,52.3,67,30.03,10.0,Calm,Calm,-,N/A,,Clear,0,2012-11-02 01:15:00
8:35 PM,59.7,51.6,75,30.04,10.0,Calm,Calm,-,N/A,,Clear,0,2012-11-02 01:35:00
8:55 PM,57.2,51.8,82,30.04,10.0,Calm,Calm,-,N/A,,Clear,0,2012-11-02 01:55:00
9:15 PM,57.7,51.6,80,30.04,10.0,Calm,Calm,-,N/A,,Clear,0,2012-11-02 02:15:00
9:35 PM,57.0,51.4,82,30.04,10.0,Calm,Calm,-,N/A,,Clear,0,2012-11-02 02:35:00
9:55 PM,55.8,51.1,84,30.04,10.0,Calm,Calm,-,N/A,,Clear,0,2012-11-02 02:55:00
10:15 PM,54.7,50.7,86,30.04,10.0,Calm,Calm,-,N/A,,Clear,0,2012-11-02 03:15:00
10:35 PM,53.4,50.0,88,30.04,10.0,Calm,Calm,-,N/A,,Clear,0,2012-11-02 03:35:00
10:55 PM,53.6,50.2,88,30.04,10.0,NW,4.6,-,N/A,,Clear,320,2012-11-02 03:55:00
11:15 PM,53.4,50.0,88,30.04,10.0,Calm,Calm,-,N/A,,Clear,0,2012-11-02 04:15:00
11:35 PM,53.6,50.0,88,30.04,10.0,NNW,3.5,-,N/A,,Clear,330,2012-11-02 04:35:00
11:55 PM,53.2,49.8,88,30.04,10.0,Calm,Calm,-,N/A,,Clear,0,2012-11-02 04:55:00